Location: Fort Wayne
(41.1310°N, 85.1290°W)
Time: 21:09:30
(UTC-04:00)

Helios 1B - Visible Passes

Search period start: 26 August 2016 00:00
Search period end: 05 September 2016 00:00
Orbit: 621 x 624 km, 98.1° (Epoch: 26 August)

Date Brightness Start Highest point End Pass type
(mag) Time Alt. Az. Time Alt. Az. Time Alt. Az.
26 Aug 7.6 01:28:21 13° N 01:28:21 13° N 01:28:52 10° N visible
27 Aug 7.7 01:46:44 11° NNW 01:46:44 11° NNW 01:46:55 10° NNW visible
29 Aug 7.6 00:46:15 11° NNE 00:46:15 11° NNE 00:46:26 10° N visible
30 Aug 7.7 01:04:37 11° N 01:04:37 11° N 01:04:49 10° N visible
31 Aug 7.8 01:22:59 10° N 01:22:59 10° N 01:23:03 10° N visible
